When you browse on this site, cookies collect data to enhance your experience and personalize the content and advertising you see.
Visit our Privacy Policy to learn more. By continuing to use the site, you agree to this use of cookies and data.
  • In Lithuania
  • List of Countries
  • For 7 days
  • Water Temperature
  • Satellite Maps
  • Weather Map
  • Weather Widgets
  • user-avatar
    Login

    Hourly Weather Sovhoznoe

    Today, 20 March, Wednesday

    Time Temperature Precipitation Wind Pressure Humidity
    00:00 +2°C° 0 mm 2 mps 692 mmHg 80%
    01:00 +1°C° 0 mm 2 mps 691 mmHg 80%
    02:00 +1°C° 0 mm 2 mps 691 mmHg 80%
    03:00 +1°C° 0 mm 2 mps 691 mmHg 79%
    04:00 +1°C° 0 mm 2 mps 691 mmHg 79%
    05:00 +1°C° 0 mm 2 mps 691 mmHg 79%
    06:00 +1°C° 0 mm 2 mps 691 mmHg 80%
    07:00 +2°C° 0 mm 2 mps 691 mmHg 76%
    08:00 +3°C° 0 mm 2 mps 690 mmHg 72%
    09:00 +4°C° 0 mm 3 mps 690 mmHg 68%
    10:00 +5°C° 0 mm 3 mps 690 mmHg 65%
    11:00 +7°C° 0 mm 3 mps 690 mmHg 62%
    12:00 +7°C° 0 mm 4 mps 690 mmHg 59%
    13:00 +7°C° 0 mm 4 mps 690 mmHg 58%
    14:00 +8°C° 0 mm 4 mps 690 mmHg 58%
    15:00 +8°C° 0 mm 4 mps 690 mmHg 57%
    16:00 +7°C° 0 mm 4 mps 690 mmHg 63%
    17:00 +7°C° 0 mm 3 mps 690 mmHg 68%
    18:00 +5°C° 0 mm 3 mps 690 mmHg 73%
    19:00 +4°C° 0 mm 3 mps 690 mmHg 75%
    20:00 +4°C° 0 mm 2 mps 690 mmHg 78%
    21:00 +4°C° 0 mm 2 mps 691 mmHg 81%
    22:00 +3°C° 0 mm 2 mps 690 mmHg 81%
    23:00 +4°C° 0 mm 1 mps 690 mmHg 80%

    Tomorrow, 21 March, Thursday

    Time Temperature Precipitation Wind Pressure Humidity
    00:00 +4°C° 0 mm 1 mps 690 mmHg 80%
    01:00 +4°C° 0 mm 1 mps 690 mmHg 79%
    02:00 +3°C° 0 mm 1 mps 690 mmHg 78%
    03:00 +3°C° 0 mm 1 mps 690 mmHg 78%
    04:00 +3°C° 0 mm 1 mps 690 mmHg 77%
    05:00 +3°C° 0 mm 1 mps 690 mmHg 75%
    06:00 +3°C° 0 mm 1 mps 690 mmHg 74%
    07:00 +5°C° 0 mm 1 mps 691 mmHg 69%
    08:00 +6°C° 0 mm 1 mps 691 mmHg 63%
    09:00 +8°C° 0 mm 1 mps 691 mmHg 57%
    10:00 +9°C° 0 mm 1 mps 691 mmHg 56%
    11:00 +9°C° 0 mm 2 mps 691 mmHg 55%
    12:00 +10°C° 0 mm 2 mps 691 mmHg 53%
    13:00 +10°C° 0 mm 2 mps 691 mmHg 56%
    14:00 +10°C° 0 mm 2 mps 691 mmHg 58%
    15:00 +10°C° 0 mm 2 mps 691 mmHg 60%
    16:00 +9°C° 0.1 mm 2 mps 691 mmHg 64%
    17:00 +9°C° 0.1 mm 2 mps 691 mmHg 69%
    18:00 +8°C° 0.1 mm 2 mps 691 mmHg 73%
    19:00 +7°C° 0.1 mm 2 mps 691 mmHg 76%
    20:00 +7°C° 0.1 mm 2 mps 691 mmHg 78%
    21:00 +6°C° 0.1 mm 2 mps 691 mmHg 80%
    22:00 +6°C° 0.1 mm 2 mps 691 mmHg 82%
    23:00 +6°C° 0.1 mm 2 mps 691 mmHg 84%

    Day after tomorrow, 22 March, Friday

    Time Temperature Precipitation Wind Pressure Humidity
    00:00 +5°C° 0.1 mm 2 mps 691 mmHg 85%
    01:00 +5°C° 0.2 mm 2 mps 691 mmHg 86%
    02:00 +5°C° 0.2 mm 2 mps 691 mmHg 87%
    03:00 +5°C° 0.2 mm 1 mps 691 mmHg 87%
    04:00 +5°C° 0.9 mm 1 mps 691 mmHg 89%
    05:00 +4°C° 0.9 mm 2 mps 691 mmHg 90%
    06:00 +3°C° 0.9 mm 2 mps 691 mmHg 92%
    07:00 +3°C° 0.9 mm 2 mps 691 mmHg 89%
    08:00 +2°C° 0.9 mm 3 mps 691 mmHg 86%
    09:00 0°C° 0.9 mm 4 mps 691 mmHg 82%
    10:00 +1°C° 0.2 mm 4 mps 691 mmHg 80%
    11:00 +1°C° 0.2 mm 4 mps 691 mmHg 78%
    12:00 +1°C° 0.2 mm 4 mps 691 mmHg 75%
    13:00 +1°C° 0.5 mm 4 mps 690 mmHg 76%
    14:00 +1°C° 0.5 mm 4 mps 690 mmHg 77%
    15:00 +1°C° 0.5 mm 4 mps 690 mmHg 78%
    16:00 +2°C° 0.5 mm 3 mps 690 mmHg 80%
    17:00 +2°C° 0.5 mm 3 mps 691 mmHg 81%
    18:00 +2°C° 0.5 mm 2 mps 691 mmHg 82%
    19:00 +2°C° 0.3 mm 2 mps 691 mmHg 83%
    20:00 +2°C° 0.3 mm 2 mps 691 mmHg 84%
    21:00 +3°C° 0.3 mm 1 mps 692 mmHg 85%
    22:00 +2°C° 0 mm 1 mps 691 mmHg 84%
    23:00 +1°C° 0 mm 1 mps 691 mmHg 84%

    23 March, Saturday

    Time Temperature Precipitation Wind Pressure Humidity
    00:00 0°C° 0 mm 1 mps 691 mmHg 84%
    01:00 +1°C° 0 mm 1 mps 691 mmHg 82%
    02:00 +1°C° 0 mm 1 mps 691 mmHg 80%
    03:00 +1°C° 0 mm 1 mps 691 mmHg 77%
    04:00 +1°C° 0 mm 1 mps 690 mmHg 76%
    05:00 +1°C° 0 mm 1 mps 690 mmHg 74%
    06:00 +1°C° 0 mm 1 mps 690 mmHg 72%
    07:00 +3°C° 0 mm 1 mps 690 mmHg 72%
    08:00 +4°C° 0 mm 1 mps 690 mmHg 71%
    09:00 +5°C° 0 mm 1 mps 690 mmHg 70%
    10:00 +6°C° 0 mm 1 mps 689 mmHg 69%
    11:00 +6°C° 0 mm 2 mps 689 mmHg 68%
    12:00 +7°C° 0 mm 2 mps 688 mmHg 67%
    13:00 +5°C° 0.8 mm 4 mps 688 mmHg 73%
    14:00 +3°C° 0.8 mm 5 mps 687 mmHg 78%
    15:00 +2°C° 0.8 mm 6 mps 687 mmHg 83%
    16:00 +1°C° 1.9 mm 6 mps 687 mmHg 84%
    17:00 +1°C° 1.9 mm 6 mps 687 mmHg 85%
    18:00 +1°C° 1.9 mm 5 mps 687 mmHg 87%
    19:00 -1°C° 1 mm 6 mps 687 mmHg 85%
    20:00 -1°C° 1 mm 6 mps 688 mmHg 84%
    21:00 -1°C° 1 mm 7 mps 688 mmHg 82%
    22:00 -1°C° 0.4 mm 6 mps 688 mmHg 81%
    23:00 -2°C° 0.4 mm 6 mps 689 mmHg 80%

    24 March, Sunday

    Time Temperature Precipitation Wind Pressure Humidity
    00:00 -2°C° 0.4 mm 6 mps 689 mmHg 79%
    01:00 -2°C° 0 mm 5 mps 689 mmHg 79%
    02:00 -2°C° 0 mm 4 mps 689 mmHg 79%
    03:00 -3°C° 0 mm 4 mps 689 mmHg 79%
    04:00 -4°C° 0 mm 3 mps 689 mmHg 74%
    05:00 -4°C° 0 mm 3 mps 689 mmHg 70%
    06:00 -5°C° 0 mm 3 mps 689 mmHg 65%
    07:00 -2°C° 0 mm 3 mps 689 mmHg 63%
    08:00 +1°C° 0 mm 2 mps 689 mmHg 61%
    09:00 +3°C° 0 mm 2 mps 690 mmHg 59%
    10:00 +3°C° 0 mm 3 mps 690 mmHg 60%
    11:00 +4°C° 0 mm 3 mps 689 mmHg 60%
    12:00 +5°C° 0 mm 3 mps 689 mmHg 61%
    13:00 +6°C° 0 mm 4 mps 689 mmHg 60%
    14:00 +6°C° 0 mm 4 mps 689 mmHg 60%
    15:00 +7°C° 0 mm 5 mps 688 mmHg 60%
    16:00 +6°C° 0 mm 4 mps 688 mmHg 64%
    17:00 +5°C° 0 mm 4 mps 688 mmHg 68%
    18:00 +5°C° 0 mm 3 mps 688 mmHg 72%
    19:00 +4°C° 0 mm 3 mps 688 mmHg 73%
    20:00 +4°C° 0 mm 3 mps 688 mmHg 74%
    21:00 +3°C° 0 mm 3 mps 689 mmHg 75%
    22:00 +5°C° 0.3 mm 2 mps 689 mmHg 75%
    23:00 +5°C° 0.3 mm 2 mps 689 mmHg 76%

    25 March, Monday

    Time Temperature Precipitation Wind Pressure Humidity
    00:00 +5°C° 0.3 mm 2 mps 688 mmHg 77%
    01:00 +4°C° 0.4 mm 2 mps 688 mmHg 80%
    02:00 +4°C° 0.4 mm 2 mps 688 mmHg 82%
    03:00 +4°C° 0.4 mm 2 mps 688 mmHg 85%
    04:00 +4°C° 0.7 mm 2 mps 688 mmHg 86%
    05:00 +4°C° 0.7 mm 1 mps 688 mmHg 87%
    06:00 +4°C° 0.7 mm 1 mps 688 mmHg 88%
    07:00 +4°C° 0.5 mm 1 mps 689 mmHg 90%
    08:00 +4°C° 0.5 mm 1 mps 689 mmHg 91%
    09:00 +4°C° 0.5 mm 1 mps 689 mmHg 93%
    10:00 +5°C° 0.1 mm 1 mps 689 mmHg 92%
    11:00 +4°C° 0.1 mm 2 mps 688 mmHg 91%
    12:00 +4°C° 0.1 mm 2 mps 688 mmHg 90%
    13:00 +4°C° 0.1 mm 2 mps 688 mmHg 87%
    14:00 +5°C° 0.1 mm 2 mps 688 mmHg 85%
    15:00 +5°C° 0.1 mm 2 mps 688 mmHg 82%
    16:00 +6°C° 0 mm 1 mps 688 mmHg 83%
    17:00 +6°C° 0 mm 1 mps 689 mmHg 85%
    18:00 +6°C° 0 mm 1 mps 689 mmHg 86%
    19:00 +5°C° 0 mm 1 mps 689 mmHg 87%
    20:00 +5°C° 0 mm 1 mps 689 mmHg 87%
    21:00 +5°C° 0 mm 1 mps 690 mmHg 87%
    22:00 +4°C° 0 mm 1 mps 689 mmHg 87%
    23:00 +4°C° 0 mm 1 mps 689 mmHg 87%
    Show more